Zurück zum Katalog

FLOCK 4H 11

AktivWissenschaftSSO
NORAD 66714·PAYLOAD·🇺🇸 United States

Gestartet Nov 28, 2025 von Vandenberg Space Force Base

Loading…

Nächste Überflüge (nächste 24 Stunden)

TLE

AktuellSource: Space-Track

Epoche: Sep 14, 2026, 03:36 UTC

1 66714U 25276BA  26257.15063732  .00012767  00000-0  51807-3 0  9992
2 66714  97.4122 330.1000 0003918  74.5836 285.5834 15.24734196 43994

Verfolge FLOCK 4H 11 in Echtzeit mit AllMySat

Download on the App Store